{"data":{"norad_id":63194,"intl_designator":"2025-048M","name":"STARLINK-11636 [DTC]","alt_names":[],"object_type":"PAYLOAD","status":"ACTIVE","operator":null,"country":"US","launch_date":"2025-03-13","launch_site_code":"AFETR","launch_vehicle":null,"mission":null,"orbit_class":"UNKNOWN","rcs_meters":null,"size_class":null,"mass_kg":null,"dimensions":null,"purposes":["comms"],"wikipedia_slug":null,"has_3d_model":false,"image_url":null,"decayed_at":null,"tle_current":{"epoch":"2026-05-24T15:14:54.653856Z","epoch_age_seconds":117253,"freshness":"FRESH","line1":"1 63194U 25048M   26144.63535479  .00195653  00000+0  14919-2 0  9995","line2":"2 63194  43.0015 222.2810 0001107 258.8819 101.1924 15.70852707 70462","mean_motion":15.70852707,"eccentricity":0.0001107,"inclination_deg":43.0015,"raan_deg":222.281,"arg_perigee_deg":258.8819,"mean_anomaly_deg":101.1924,"bstar":0.0014919,"rev_number":7046,"period_min":91.669956933779,"perigee_km":355.7132230805,"apogee_km":357.20426257797,"semimajor_km":6734.5957428292,"source":"CELESTRAK","updated_at":"2026-05-25T13:38:19.921116Z"}}}